RH
28 31 24 26 37 37 37 42 60 57 60 65 70 69 73 74 75 82 80 74 69 67 57 54 54 45 40 38 38 34 30 26 19 18 18 16 15 11 10 8 7 7 7 7 8 8 8 10 11
29 22 36 29 37 40 52 58 63 67 67 65 67 75 77 80 73 76 81 73 68 55 56 51 46 38 40 40 37 32 24 18 18 18 17 14 10 8 5 7 8 9 10 10 11 11 11 10 10
37 20 27 21 35 47 56 62 67 66 70 69 67 73 74 79 75 64 65 63 61 62 57 54 43 38 40 40 32 22 18 18 18 16 13 9 8 6 8 11 13 14 15 16 16 17 17 16 15
40 26 18 26 22 37 53 55 60 69 68 64 73 68 65 62 58 56 52 49 50 50 50 45 41 39 37 30 19 19 19 17 14 10 8 10 8 9 13 17 18 18 19 21 22 23 24 24 24
43 27 24 32 42 43 48 60 62 64 65 66 64 67 64 64 58 52 45 44 46 46 45 44 41 31 23 17 18 17 14 9 7 8 9 10 14 18 21 24 25 25 25 26 26 28 28 28 30
39 29 37 67 58 56 65 64 59 65 65 63 65 64 62 54 50 43 40 40 42 43 41 33 25 17 17 17 14 10 6 5 7 11 16 22 24 25 27 28 28 28 29 28 28 28 29 30 30
38 28 41 52 61 61 62 61 68 63 62 60 57 52 56 49 43 34 31 37 35 27 20 17 17 16 15 10 6 6 6 9 14 21 25 26 29 32 33 33 32 31 31 30 30 29 28 29 30
37 39 41 50 69 67 59 60 64 59 55 51 44 42 45 35 30 26 18 16 17 17 18 17 17 14 11 6 6 8 13 18 23 25 29 33 36 36 34 34 35 34 36 34 34 33 32 32 31
34 42 47 57 62 69 61 56 55 46 41 36 28 30 28 21 23 20 16 17 17 19 20 19 17 15 12 12 15 19 22 24 27 32 33 35 38 38 39 40 40 40 38 37 34 35 35 35 35
34 37 46 52 53 56 51 51 46 39 36 29 26 29 27 21 19 18 16 16 19 20 21 19 18 17 18 19 23 25 29 31 35 37 33 34 36 38 37 41 41 42 44 43 41 40 40 40 39
37 36 39 46 50 45 42 39 34 26 23 19 17 21 23 20 20 18 17 16 20 30 32 30 27 26 22 25 26 31 32 33 34 35 35 36 37 37 37 39 42 45 47 46 45 44 43 42 40
34 31 31 37 48 34 28 27 29 14 17 15 17 18 22 24 25 22 19 19 29 39 40 40 34 33 29 30 33 37 40 43 45 47 45 42 42 39 39 43 45 46 48 49 49 47 46 44 42
29 26 25 24 25 26 24 24 15 10 16 19 20 23 23 27 27 26 25 30 34 37 41 43 43 42 42 44 46 48 54 55 56 52 50 46 42 41 43 48 50 51 51 50 50 50 50 49 49
28 27 25 23 23 22 21 13 8 11 20 23 22 24 27 31 31 34 34 34 34 36 43 48 47 50 53 54 55 55 59 58 53 53 50 49 47 50 52 57 56 54 50 50 52 52 52 53 52
27 26 20 14 17 20 15 9 11 17 23 23 25 26 29 36 39 40 39 38 40 41 48 53 56 60 65 68 67 62 61 55 50 51 52 54 61 64 63 64 58 54 51 54 55 55 54 52 49
26 27 18 20 19 13 9 14 17 24 27 26 28 31 33 38 40 41 43 43 47 50 55 70 75 82 82 81 81 77 73 61 57 56 60 67 67 69 66 60 58 56 55 58 56 53 49 42 36
26 20 25 29 28 22 19 24 23 29 29 27 34 36 35 37 39 43 47 52 56 55 62 80 82 87 91 89 84 70 66 63 64 68 70 72 75 72 66 65 63 60 58 52 49 43 37 37 35
24 26 25 28 27 25 23 24 28 24 27 30 36 37 36 36 38 42 51 57 58 66 77 88 92 92 91 86 75 71 71 70 74 78 78 77 74 73 71 69 62 55 51 49 42 38 37 36 34
24 25 29 29 28 27 30 31 32 29 29 36 39 38 41 42 42 49 50 53 62 73 84 88 89 78 75 75 75 74 74 79 81 80 81 78 79 75 68 61 58 55 50 46 44 41 39 35 30
33 32 29 28 32 31 33 36 37 37 37 39 40 44 49 53 58 61 61 70 78 82 77 67 68 74 76 73 70 76 81 79 77 77 77 75 70 65 60 58 56 51 48 48 45 40 33 28 28
38 33 35 36 37 37 34 38 40 44 46 47 50 53 60 62 63 63 70 69 68 67 63 62 59 60 64 67 68 68 68 69 69 67 63 58 56 56 57 57 57 59 55 45 38 31 28 26 26
37 38 36 38 38 44 36 48 42 46 51 56 55 54 61 63 67 67 64 61 59 58 55 54 57 59 61 60 64 65 66 64 64 63 61 60 63 62 60 56 65 62 52 42 29 25 26 28 28
30 30 30 33 39 40 38 44 43 49 54 56 58 60 62 67 63 61 59 58 57 55 56 54 55 55 57 61 60 61 62 64 62 61 60 57 61 61 60 56 51 49 47 34 28 30 33 31 30
27 31 35 38 36 43 40 44 49 49 51 57 61 66 66 71 67 61 59 59 58 60 59 57 58 59 61 63 64 63 59 58 58 58 58 58 54 49 43 39 37 36 33 30 32 33 35 35 36
27 33 45 49 50 50 41 47 47 47 51 58 64 64 69 68 66 64 70 71 70 66 65 66 65 63 60 57 56 57 56 58 56 53 50 46 42 38 37 39 44 44 39 38 40 44 44 50 51
30 35 50 49 57 51 46 54 51 51 55 58 58 57 60 63 73 76 72 69 64 67 66 67 63 56 53 54 55 55 53 49 46 42 36 32 35 39 44 49 47 42 51 52 51 51 58 59 60
30 32 34 45 52 55 51 46 50 50 53 55 56 57 63 78 70 62 60 63 69 71 68 64 59 55 55 54 52 48 44 42 38 34 33 33 37 39 41 45 50 63 64 69 67 62 57 58 53
26 28 35 40 41 43 45 47 50 48 51 54 58 63 63 61 58 60 65 72 71 72 72 69 62 59 57 52 46 44 43 38 37 36 38 43 44 48 53 53 61 67 68 69 68 66 68 59 55
29 28 32 36 42 47 52 46 38 44 46 50 53 51 52 56 62 67 71 74 73 73 72 67 62 62 54 47 42 39 36 37 38 38 41 47 50 54 53 51 63 73 74 75 77 74 65 58 50
25 26 28 37 35 49 49 39 34 41 44 46 49 52 55 59 64 68 72 76 77 76 70 69 66 56 50 44 38 36 35 33 31 37 45 50 44 41 41 43 58 75 74 81 76 71 66 50 50